User: anonymous   Login
Location: South Tamworth Observatory
(43.8246°N, 71.3026°W)
Time: 15:41:27
(UTC-05:00)
Language:

Cosmos 2208 Rocket - Orbit

View from above orbital plane
View from above orbital plane
View from above satellite
View from above satellite

Ground track
Ground track

The orbit data is extracted from the following two-line orbital elements,

1 22081U 92053B   14330.59524140  .00000202  00000-0  82528-4 0  7365
2 22081 074.0446 342.9967 0035851 183.1825 176.9105 14.33141419165080
Epoch (UTC): 26 November 2014 14:17:08
Eccentricity: 0.0035851
inclination: 74.0446°
perigee height: 755 km
apogee height: 807 km
right ascension of ascending node: 342.9967°
argument of perigee: 183.1825°
revolutions per day: 14.33141419
mean anomaly at epoch: 176.9105°
orbit number at epoch: 16508

The dashed part of the orbit path shows where the satellite is in the earth's shadow,  

DLR